TimeEDT,TemperatureF,Dew PointF,Humidity,Sea Level PressureIn,VisibilityMPH,Wind Direction,Wind SpeedMPH,Gust SpeedMPH,PrecipitationIn,Events,Conditions,WindDirDegrees,DateUTC
12:53 AM,37.9,30.9,76,30.10,10.0,West,9.2,-,N/A,,Clear,260,2011-10-06 04:53:00
1:53 AM,37.0,30.9,79,30.12,10.0,West,6.9,-,N/A,,Clear,280,2011-10-06 05:53:00
2:53 AM,37.0,28.9,73,30.13,10.0,WNW,6.9,-,N/A,,Clear,290,2011-10-06 06:53:00
3:53 AM,37.9,28.0,68,30.14,10.0,NW,6.9,-,N/A,,Clear,310,2011-10-06 07:53:00
4:53 AM,36.0,27.0,70,30.16,10.0,North,8.1,-,N/A,,Clear,350,2011-10-06 08:53:00
5:53 AM,35.1,27.0,72,30.17,10.0,NW,4.6,-,N/A,,Scattered Clouds,310,2011-10-06 09:53:00
6:53 AM,35.1,26.1,70,30.18,10.0,NW,5.8,-,N/A,,Partly Cloudy,310,2011-10-06 10:53:00
7:53 AM,37.0,27.0,67,30.20,10.0,WNW,5.8,-,N/A,,Clear,300,2011-10-06 11:53:00
8:53 AM,42.1,27.0,55,30.21,10.0,NNW,10.4,-,N/A,,Clear,330,2011-10-06 12:53:00
9:53 AM,44.1,23.0,43,30.20,10.0,NNW,20.7,32.2,N/A,,Partly Cloudy,330,2011-10-06 13:53:00
10:53 AM,46.9,21.0,36,30.19,10.0,NW,17.3,25.3,N/A,,Partly Cloudy,320,2011-10-06 14:53:00
11:53 AM,48.9,21.0,33,30.19,10.0,NNW,20.7,32.2,N/A,,Clear,330,2011-10-06 15:53:00
12:53 PM,50.0,19.9,31,30.18,10.0,NNW,20.7,36.8,N/A,,Partly Cloudy,340,2011-10-06 16:53:00
1:53 PM,48.0,21.0,34,30.17,10.0,NNW,20.7,29.9,N/A,,Scattered Clouds,340,2011-10-06 17:53:00
2:53 PM,48.0,21.0,34,30.18,10.0,North,20.7,26.5,N/A,,Scattered Clouds,350,2011-10-06 18:53:00
3:53 PM,50.0,24.1,36,30.18,10.0,NNW,15.0,24.2,N/A,,Scattered Clouds,330,2011-10-06 19:53:00
4:53 PM,48.0,23.0,37,30.19,10.0,NNW,11.5,20.7,N/A,,Partly Cloudy,330,2011-10-06 20:53:00
5:53 PM,45.0,24.1,44,30.22,10.0,NW,5.8,-,N/A,,Partly Cloudy,310,2011-10-06 21:53:00
6:53 PM,42.1,24.1,49,30.25,10.0,WNW,4.6,-,N/A,,Partly Cloudy,300,2011-10-06 22:53:00
7:53 PM,39.9,25.0,55,30.27,10.0,WSW,4.6,-,N/A,,Partly Cloudy,250,2011-10-06 23:53:00
8:53 PM,39.0,27.0,62,30.30,10.0,NW,5.8,-,N/A,,Mostly Cloudy,310,2011-10-07 00:53:00
9:53 PM,39.9,26.1,58,30.30,10.0,WNW,5.8,-,N/A,,Partly Cloudy,300,2011-10-07 01:53:00
10:53 PM,36.0,27.0,70,30.32,10.0,West,6.9,-,N/A,,Clear,270,2011-10-07 02:53:00
11:53 PM,36.0,27.0,70,30.32,10.0,West,4.6,-,N/A,,Scattered Clouds,280,2011-10-07 03:53:00